カタログに戻る

BUGSAT 1

運用中科学PO
NORAD 40014·PAYLOAD·🇦🇷 Argentina

打ち上げ Jun 19, 2014 から Dombarovsky

Loading…

次のパス (今後24時間)

TLE

最新Source: Space-Track

元期: Sep 14, 2026, 12:54 UTC

1 40014U 14033E   26257.53771410  .00004913  00000-0  25493-3 0  9993
2 40014  98.0430 355.3638 0026312 234.0200 125.8592 15.16365266669377

AllMySatでBUGSAT 1をリアルタイム追跡

Download on the App Store